• En Estados Unidos
  • Lista de países
  • Para 7 días
  • Temperatura del agua
  • Mapa Satelital
  • El tiempo en el mapa
  • Informadores
  • user-avatar
    Iniciar sesión

    Tiempo cada hora Quito

    Hoy, 20 Enero, Sábado

    Tiempo Temperatura Precipitaciones Viento Presión Humedad
    00:00 +16°C° 0,7 mm 0 mps 621 mmHg 94%
    01:00 +16°C° 0 mm 0 mps 621 mmHg 95%
    02:00 +15°C° 0,3 mm 0 mps 620 mmHg 95%
    03:00 +15°C° 0,3 mm 0 mps 620 mmHg 96%
    04:00 +15°C° 0,3 mm 0 mps 620 mmHg 96%
    05:00 +15°C° 0,3 mm 0 mps 620 mmHg 96%
    06:00 +16°C° 0,3 mm 1 mps 620 mmHg 96%
    07:00 +18°C° 0 mm 1 mps 621 mmHg 96%
    08:00 +19°C° 0,5 mm 1 mps 621 mmHg 92%
    09:00 +20°C° 0,5 mm 1 mps 622 mmHg 89%
    10:00 +21°C° 0,5 mm 1 mps 622 mmHg 85%
    11:00 +22°C° 1 mm 1 mps 622 mmHg 83%
    12:00 +23°C° 1 mm 1 mps 621 mmHg 81%
    13:00 +24°C° 1 mm 1 mps 621 mmHg 79%
    14:00 +23°C° 1,2 mm 1 mps 621 mmHg 79%
    15:00 +23°C° 1,2 mm 1 mps 621 mmHg 78%
    16:00 +23°C° 1,2 mm 1 mps 620 mmHg 78%
    17:00 +22°C° 2,3 mm 1 mps 620 mmHg 83%
    18:00 +20°C° 2,3 mm 1 mps 620 mmHg 88%
    19:00 +19°C° 2,3 mm 1 mps 620 mmHg 93%
    20:00 +19°C° 1,9 mm 1 mps 620 mmHg 93%
    21:00 +19°C° 1,9 mm 1 mps 621 mmHg 93%
    22:00 +18°C° 1,9 mm 1 mps 621 mmHg 93%
    23:00 +18°C° 1,5 mm 1 mps 621 mmHg 94%

    Mañana, 21 Enero, Domingo

    Tiempo Temperatura Precipitaciones Viento Presión Humedad
    00:00 +18°C° 1,5 mm 1 mps 621 mmHg 95%
    01:00 +18°C° 1,5 mm 1 mps 621 mmHg 96%
    02:00 +18°C° 1,2 mm 1 mps 620 mmHg 96%
    03:00 +16°C° 1,2 mm 1 mps 620 mmHg 97%
    04:00 +16°C° 1,2 mm 2 mps 620 mmHg 97%
    05:00 +16°C° 0,4 mm 2 mps 621 mmHg 97%
    06:00 +16°C° 0,4 mm 2 mps 621 mmHg 96%
    07:00 +17°C° 0,4 mm 2 mps 621 mmHg 96%
    08:00 +18°C° 0,3 mm 2 mps 622 mmHg 92%
    09:00 +19°C° 0,3 mm 2 mps 622 mmHg 89%
    10:00 +20°C° 0,3 mm 2 mps 623 mmHg 85%
    11:00 +20°C° 0,8 mm 3 mps 623 mmHg 82%
    12:00 +21°C° 0,8 mm 3 mps 622 mmHg 79%
    13:00 +22°C° 0,8 mm 3 mps 622 mmHg 77%
    14:00 +22°C° 0,7 mm 3 mps 621 mmHg 78%
    15:00 +21°C° 0,7 mm 3 mps 621 mmHg 78%
    16:00 +21°C° 0,7 mm 3 mps 621 mmHg 79%
    17:00 +20°C° 0,6 mm 3 mps 621 mmHg 83%
    18:00 +19°C° 0,6 mm 2 mps 621 mmHg 87%
    19:00 +17°C° 0,6 mm 2 mps 621 mmHg 91%
    20:00 +17°C° 0,2 mm 2 mps 621 mmHg 92%
    21:00 +17°C° 0,2 mm 2 mps 621 mmHg 94%
    22:00 +16°C° 0,2 mm 2 mps 622 mmHg 95%
    23:00 +16°C° 0 mm 2 mps 621 mmHg 95%

    Pasado mañana, 22 Enero, Lunes

    Tiempo Temperatura Precipitaciones Viento Presión Humedad
    00:00 +16°C° 0 mm 2 mps 621 mmHg 95%
    01:00 +15°C° 0 mm 2 mps 621 mmHg 95%
    02:00 +15°C° 0 mm 2 mps 621 mmHg 95%
    03:00 +15°C° 0 mm 2 mps 620 mmHg 95%
    04:00 +15°C° 0 mm 1 mps 620 mmHg 95%
    05:00 +15°C° 0 mm 1 mps 621 mmHg 94%
    06:00 +15°C° 0 mm 1 mps 621 mmHg 93%
    07:00 +16°C° 0 mm 1 mps 622 mmHg 92%
    08:00 +19°C° 0 mm 1 mps 623 mmHg 84%
    09:00 +21°C° 0 mm 1 mps 623 mmHg 75%
    10:00 +22°C° 0 mm 1 mps 624 mmHg 67%
    11:00 +23°C° 0,1 mm 1 mps 623 mmHg 65%
    12:00 +24°C° 0,1 mm 2 mps 623 mmHg 62%
    13:00 +24°C° 0,1 mm 2 mps 622 mmHg 60%
    14:00 +24°C° 0,3 mm 2 mps 622 mmHg 63%
    15:00 +24°C° 0,3 mm 2 mps 621 mmHg 67%
    16:00 +24°C° 0,3 mm 2 mps 620 mmHg 70%
    17:00 +22°C° 0,3 mm 1 mps 621 mmHg 76%
    18:00 +20°C° 0,3 mm 1 mps 621 mmHg 82%
    19:00 +19°C° 0,3 mm 1 mps 621 mmHg 88%
    20:00 +18°C° 0,4 mm 1 mps 621 mmHg 90%
    21:00 +18°C° 0,4 mm 1 mps 622 mmHg 91%
    22:00 +16°C° 0,4 mm 1 mps 622 mmHg 93%
    23:00 +16°C° 0,3 mm 1 mps 622 mmHg 94%

    23 Enero, Martes

    Tiempo Temperatura Precipitaciones Viento Presión Humedad
    00:00 +16°C° 0,3 mm 1 mps 621 mmHg 95%
    01:00 +16°C° 0,3 mm 1 mps 621 mmHg 95%
    02:00 +16°C° 0,1 mm 1 mps 620 mmHg 96%
    03:00 +15°C° 0,1 mm 1 mps 620 mmHg 96%
    04:00 +15°C° 0,1 mm 1 mps 620 mmHg 96%
    05:00 +15°C° 0 mm 1 mps 620 mmHg 95%
    06:00 +16°C° 0 mm 1 mps 621 mmHg 94%
    07:00 +16°C° 0 mm 1 mps 621 mmHg 93%
    08:00 +19°C° 0 mm 1 mps 622 mmHg 83%
    09:00 +22°C° 0 mm 1 mps 623 mmHg 74%
    10:00 +24°C° 0 mm 1 mps 623 mmHg 64%
    11:00 +25°C° 0,1 mm 1 mps 623 mmHg 61%
    12:00 +25°C° 0,1 mm 1 mps 622 mmHg 58%
    13:00 +26°C° 0,1 mm 1 mps 622 mmHg 55%
    14:00 +25°C° 0,5 mm 2 mps 621 mmHg 60%
    15:00 +25°C° 0,5 mm 2 mps 620 mmHg 65%
    16:00 +24°C° 0,5 mm 2 mps 620 mmHg 70%
    17:00 +21°C° 1,1 mm 2 mps 620 mmHg 77%
    18:00 +20°C° 1,1 mm 2 mps 620 mmHg 83%
    19:00 +19°C° 1,1 mm 1 mps 620 mmHg 90%
    20:00 +19°C° 0,7 mm 1 mps 620 mmHg 91%
    21:00 +18°C° 0,7 mm 1 mps 621 mmHg 91%
    22:00 +18°C° 0,7 mm 1 mps 621 mmHg 92%
    23:00 +18°C° 0,6 mm 1 mps 621 mmHg 93%

    24 Enero, Miércoles

    Tiempo Temperatura Precipitaciones Viento Presión Humedad
    00:00 +18°C° 0,6 mm 1 mps 620 mmHg 93%
    01:00 +18°C° 0,6 mm 1 mps 620 mmHg 94%
    02:00 +16°C° 0,4 mm 1 mps 620 mmHg 95%
    03:00 +16°C° 0,4 mm 1 mps 620 mmHg 95%
    04:00 +16°C° 0,4 mm 2 mps 619 mmHg 96%
    05:00 +16°C° 0,1 mm 1 mps 620 mmHg 95%
    06:00 +16°C° 0,1 mm 1 mps 621 mmHg 95%
    07:00 +16°C° 0,1 mm 1 mps 621 mmHg 94%
    08:00 +17°C° 0 mm 2 mps 621 mmHg 91%
    09:00 +17°C° 0 mm 2 mps 622 mmHg 87%
    10:00 +18°C° 0 mm 2 mps 622 mmHg 83%
    11:00 +19°C° 0 mm 2 mps 622 mmHg 79%
    12:00 +20°C° 0 mm 2 mps 621 mmHg 75%
    13:00 +20°C° 0 mm 2 mps 621 mmHg 70%
    14:00 +20°C° 0 mm 2 mps 621 mmHg 71%
    15:00 +20°C° 0 mm 2 mps 620 mmHg 72%
    16:00 +20°C° 0 mm 2 mps 620 mmHg 74%
    17:00 +20°C° 0,1 mm 1 mps 620 mmHg 78%
    18:00 +19°C° 0,1 mm 1 mps 620 mmHg 82%
    19:00 +18°C° 0,1 mm 1 mps 621 mmHg 86%
    20:00 +18°C° 0 mm 1 mps 621 mmHg 88%
    21:00 +15°C° 0 mm 0 mps 621 mmHg 90%
    22:00 +15°C° 0 mm 0 mps 621 mmHg 91%
    23:00 +15°C° 0 mm 1 mps 621 mmHg 92%

    25 Enero, Jueves

    Tiempo Temperatura Precipitaciones Viento Presión Humedad
    00:00 +15°C° 0 mm 1 mps 620 mmHg 93%
    01:00 +15°C° 0 mm 1 mps 620 mmHg 94%
    02:00 +15°C° 0 mm 1 mps 620 mmHg 93%
    03:00 +15°C° 0 mm 1 mps 620 mmHg 92%
    04:00 +15°C° 0 mm 1 mps 620 mmHg 91%
    05:00 +15°C° 0 mm 1 mps 620 mmHg 90%
    06:00 +16°C° 0 mm 1 mps 621 mmHg 89%
    07:00 +16°C° 0 mm 1 mps 621 mmHg 88%
    08:00 +18°C° 0 mm 2 mps 622 mmHg 78%
    09:00 +20°C° 0 mm 2 mps 622 mmHg 69%
    10:00 +23°C° 0 mm 2 mps 623 mmHg 60%
    11:00 +24°C° 0 mm 3 mps 622 mmHg 55%
    12:00 +25°C° 0 mm 3 mps 622 mmHg 50%
    13:00 +26°C° 0 mm 3 mps 622 mmHg 45%
    14:00 +26°C° 0 mm 3 mps 622 mmHg 48%
    15:00 +26°C° 0 mm 3 mps 621 mmHg 50%
    16:00 +26°C° 0 mm 3 mps 621 mmHg 52%
    17:00 +24°C° 0,1 mm 2 mps 621 mmHg 61%
    18:00 +21°C° 0,1 mm 2 mps 621 mmHg 69%
    19:00 +18°C° 0,1 mm 2 mps 620 mmHg 78%
    20:00 +18°C° 0 mm 2 mps 621 mmHg 81%
    21:00 +17°C° 0 mm 2 mps 621 mmHg 84%
    22:00 +16°C° 0 mm 2 mps 621 mmHg 86%
    23:00 +16°C° 0 mm 1 mps 620 mmHg 88%
    Mostrar más